Weather History for Campo, CA

Change the Weather History Date:

Saturday, March 29, 2014

  Actual Average Record
Temperature  
Mean Temperature 58 °F 52 °F  
Max Temperature 80 °F 69 °F 84 °F (1971)
Min Temperature 36 °F 36 °F 19 °F (1972)
Degree Days  
Heating Degree Days 7 13  
Month to date heating degree days 338 393  
Since 1 July heating degree days 2208 2444  
Cooling Degree Days 0 0  
Month to date cooling degree days 0 0  
Year to date cooling degree days 0 0  
Growing Degree Days 8 (Base 50)    
Moisture  
Dew Point 38 °F    
Average Humidity 50    
Maximum Humidity 85    
Minimum Humidity 15    
Precipitation  
Precipitation 0.00 in 0.06 in 1.09 in (1998)
Month to date precipitation 0.75 2.58  
Year to date precipitation 2.07 8.79  
Since 1 July precipitation 6.26 14.37  
Snow  
Snow 0.00 in - - ()
Month to date snowfall 0.0  
Year to date snowfall 0.0  
Since 1 July snowfall 0.0  
Snow Depth 0.00 in    
Sea Level Pressure  
Sea Level Pressure 29.98 in    
Wind  
Wind Speed 7 mph (NNE)    
Max Wind Speed 18 mph    
Max Gust Speed 24 mph    
T = Trace of Precipitation, MM = Missing Value Source: NWS Daily Summary

Daily Weather History Graph

Daily Weather History Graph

Search for Another Location

Airport:

Trip Planner

Search our weather history database for the weather conditions in past years. The results will help you decide how hot, cold, wet, or windy it might be!

Date:

Astronomy

Mar. 29, 2014 Rise Set
Actual Time 6:37 AM PDT 7:03 PM PDT
Civil Twilight 6:13 AM PDT 7:28 PM PDT
Nautical Twilight 5:44 AM PDT 7:57 PM PDT
Astronomical Twilight 5:14 AM PDT 8:27 PM PDT
Moon 5:45 AM PDT (3/29) 6:15 PM PDT (3/29)
Length of Visible Light 13h 15m
Length of Day
12h 26m
Waning Crescent, 1% of the Moon is Illuminated
Mar 29
Waning Crescent
Mar 30
New
Apr 7
First Quarter
Apr 15
Full
Apr 22
Last Quarter

Hourly Weather History & Observations

Time (PDT) Temp. Windchill Dew Point Humidity Pressure Visibility Wind Dir Wind Speed Gust Speed Precip Events Conditions
12:52 AM 43.0 °F 40.3 °F 37.0 °F 80% 30.07 in - NE 4.6 mph - N/A   Unknown
1:52 AM 41.0 °F 36.4 °F 36.0 °F 82% 30.06 in - ENE 6.9 mph - N/A   Unknown
2:52 AM 42.1 °F 38.4 °F 35.1 °F 76% 30.06 in - NE 5.8 mph - N/A   Unknown
3:52 AM 41.0 °F 37.1 °F 35.1 °F 79% 30.04 in - NE 5.8 mph - N/A   Unknown
4:52 AM 37.0 °F 32.4 °F 33.1 °F 86% 30.05 in - NNE 5.8 mph - N/A   Unknown
5:52 AM 39.9 °F 36.7 °F 34.0 °F 79% 30.03 in - NNE 4.6 mph - N/A   Unknown
6:52 AM 41.0 °F 39.0 °F 34.0 °F 76% 30.04 in - North 3.5 mph - N/A   Unknown
7:52 AM 48.0 °F - 37.9 °F 68% 30.05 in - NE 3.5 mph - N/A   Unknown
8:52 AM 60.1 °F - 39.9 °F 47% 30.04 in - NE 3.5 mph - N/A   Unknown
9:52 AM 69.1 °F - 37.0 °F 31% 30.02 in - Calm Calm - N/A   Unknown
10:52 AM 75.0 °F - 28.0 °F 18% 30.00 in - Calm Calm - N/A   Unknown
11:52 AM 77.0 °F - 26.1 °F 15% 29.98 in - Variable 3.5 mph - N/A   Unknown
12:52 PM 79.0 °F - 35.1 °F 20% 29.95 in - South 15.0 mph 19.6 mph N/A   Unknown
1:52 PM 80.1 °F - 36.0 °F 20% 29.93 in - West 10.4 mph 19.6 mph N/A   Unknown
2:52 PM 79.0 °F - 41.0 °F 26% 29.91 in - WSW 17.3 mph 23.0 mph N/A   Unknown
3:52 PM 75.9 °F - 44.1 °F 32% 29.92 in - West 15.0 mph - N/A   Unknown
4:52 PM 73.9 °F - 45.0 °F 35% 29.92 in - West 13.8 mph - N/A   Unknown
5:52 PM 70.0 °F - 43.0 °F 38% 29.92 in - West 11.5 mph - N/A   Unknown
6:52 PM 63.0 °F - 45.0 °F 52% 29.93 in - SSW 10.4 mph - N/A   Unknown
7:52 PM 57.9 °F - 46.0 °F 65% 29.95 in - SW 4.6 mph - N/A   Unknown
8:52 PM 55.9 °F - 45.0 °F 67% 29.94 in - Calm Calm - N/A   Unknown
9:52 PM 50.0 °F - 41.0 °F 71% 29.95 in - NNE 4.6 mph - N/A   Unknown
10:52 PM 48.0 °F - 41.0 °F 77% 29.94 in - NNE 3.5 mph - N/A   Unknown
11:52 PM 46.0 °F 43.1 °F 39.9 °F 79% 29.93 in - ENE 5.8 mph - N/A   Unknown